N67322 KPAO-KAPC

Flight info

Callsign N67322
Flight time 0h 39m
Altitude 6000
Route OAK SGD
Aircraft C172/L-VGD/C

Departure

Time 2026-05-06 03:45
Airport Palo Alto Airport (KPAO)

Arrival

Time 2026-05-06 04:24
Airport Napa County Airport (KAPC)
Time Latitude Longitude Altitude Speed Heading
2026-05-06 03:39 37.45822 -122.11340 7 ft 0 kts 88°
2026-05-06 03:42 37.45824 -122.11324 7 ft 1 kts 56°
2026-05-06 03:42 37.45815 -122.11301 7 ft 10 kts 135°
2026-05-06 03:43 37.45789 -122.11246 7 ft 0 kts 134°
2026-05-06 03:43 37.45789 -122.11245 7 ft 0 kts 122°
2026-05-06 03:43 37.45829 -122.11214 7 ft 17 kts 336°
2026-05-06 03:44 37.45976 -122.11373 7 ft 48 kts 322°
2026-05-06 03:44 37.46347 -122.11693 96 ft 69 kts 322°
2026-05-06 03:44 37.46761 -122.12031 278 ft 72 kts 322°
2026-05-06 03:44 37.47188 -122.12386 476 ft 73 kts 323°
2026-05-06 03:45 37.47665 -122.12585 664 ft 77 kts 360°
2026-05-06 03:45 37.48142 -122.12264 853 ft 82 kts 46°
2026-05-06 03:45 37.48309 -122.11576 1046 ft 85 kts 92°
2026-05-06 03:45 37.48063 -122.10902 1243 ft 85 kts 127°
2026-05-06 03:46 37.47673 -122.10328 1421 ft 86 kts 130°
2026-05-06 03:46 37.47279 -122.09749 1609 ft 87 kts 129°
2026-05-06 03:46 37.46874 -122.09142 1789 ft 89 kts 128°
2026-05-06 03:46 37.46474 -122.08531 1945 ft 92 kts 128°
2026-05-06 03:47 37.46027 -122.07838 1977 ft 107 kts 127°
2026-05-06 03:47 37.45520 -122.07052 1978 ft 118 kts 127°
2026-05-06 03:47 37.44990 -122.06223 1973 ft 123 kts 127°
2026-05-06 03:47 37.44438 -122.05362 2040 ft 120 kts 126°
2026-05-06 03:48 37.44172 -122.04462 2214 ft 107 kts 83°
2026-05-06 03:48 37.44441 -122.03661 2409 ft 93 kts 47°
2026-05-06 03:48 37.44857 -122.03059 2567 ft 91 kts 43°
2026-05-06 03:48 37.45291 -122.02472 2724 ft 90 kts 42°
2026-05-06 03:49 37.45719 -122.01895 2865 ft 91 kts 43°
2026-05-06 03:49 37.46162 -122.01311 3009 ft 91 kts 42°
2026-05-06 03:49 37.46596 -122.00729 3162 ft 90 kts 42°
2026-05-06 03:49 37.47026 -122.00155 3296 ft 91 kts 43°
2026-05-06 03:50 37.47462 -121.99573 3444 ft 90 kts 42°
2026-05-06 03:50 37.47899 -121.98991 3580 ft 91 kts 43°
2026-05-06 03:50 37.48338 -121.98411 3723 ft 90 kts 43°
2026-05-06 03:50 37.48789 -121.97821 3851 ft 91 kts 42°
2026-05-06 03:51 37.49251 -121.97281 3986 ft 90 kts 25°
2026-05-06 03:51 37.49862 -121.97243 4121 ft 89 kts 339°
2026-05-06 03:51 37.50297 -121.97761 3907 ft 113 kts 287°
2026-05-06 03:51 37.50742 -121.98436 4085 ft 91 kts 330°
2026-05-06 03:52 37.51286 -121.98832 4227 ft 89 kts 330°
2026-05-06 03:52 37.51810 -121.99260 4360 ft 89 kts 327°
2026-05-06 03:52 37.52303 -121.99713 4500 ft 88 kts 326°
2026-05-06 03:52 37.52792 -122.00197 4625 ft 89 kts 324°
2026-05-06 03:53 37.53275 -122.00699 4752 ft 89 kts 323°
2026-05-06 03:53 37.53754 -122.01210 4864 ft 90 kts 323°
2026-05-06 03:53 37.54225 -122.01725 4986 ft 90 kts 323°
2026-05-06 03:53 37.54709 -122.02258 5112 ft 90 kts 323°
2026-05-06 03:54 37.55186 -122.02788 5231 ft 90 kts 323°
2026-05-06 03:54 37.55663 -122.03320 5352 ft 91 kts 323°
2026-05-06 03:54 37.56144 -122.03856 5471 ft 90 kts 323°
2026-05-06 03:54 37.56610 -122.04379 5591 ft 90 kts 323°
2026-05-06 03:55 37.57082 -122.04907 5707 ft 90 kts 323°
2026-05-06 03:55 37.57557 -122.05441 5824 ft 90 kts 324°
2026-05-06 03:55 37.58028 -122.05969 5926 ft 91 kts 323°
2026-05-06 03:55 37.58519 -122.06516 5967 ft 97 kts 323°
2026-05-06 03:56 37.59050 -122.07110 5970 ft 104 kts 323°
2026-05-06 03:56 37.59612 -122.07740 5970 ft 107 kts 323°
2026-05-06 03:56 37.60175 -122.08373 5970 ft 109 kts 323°
2026-05-06 03:56 37.60752 -122.09023 5970 ft 110 kts 323°
2026-05-06 03:57 37.61326 -122.09668 5967 ft 111 kts 323°
2026-05-06 03:57 37.61905 -122.10319 5968 ft 111 kts 323°
2026-05-06 03:57 37.62482 -122.10968 5967 ft 111 kts 323°
2026-05-06 03:57 37.63064 -122.11623 5967 ft 111 kts 323°
2026-05-06 03:58 37.63641 -122.12272 5967 ft 111 kts 323°
2026-05-06 03:58 37.64215 -122.12917 5968 ft 111 kts 323°
2026-05-06 03:58 37.64793 -122.13568 5968 ft 111 kts 323°
2026-05-06 03:58 37.65376 -122.14225 5967 ft 111 kts 323°
2026-05-06 03:59 37.65951 -122.14871 5967 ft 111 kts 323°
2026-05-06 03:59 37.66530 -122.15524 5965 ft 111 kts 323°
2026-05-06 03:59 37.67115 -122.16182 5967 ft 111 kts 323°
2026-05-06 03:59 37.67691 -122.16831 5967 ft 111 kts 323°
2026-05-06 04:00 37.68276 -122.17490 5967 ft 111 kts 323°
2026-05-06 04:00 37.68855 -122.18142 5967 ft 111 kts 323°
2026-05-06 04:00 37.69432 -122.18793 5965 ft 111 kts 323°
2026-05-06 04:00 37.70020 -122.19456 5966 ft 111 kts 323°
2026-05-06 04:01 37.70605 -122.20115 5966 ft 111 kts 323°
2026-05-06 04:01 37.71182 -122.20766 5969 ft 111 kts 323°
2026-05-06 04:01 37.71759 -122.21417 5968 ft 111 kts 322°
2026-05-06 04:01 37.72339 -122.22066 5966 ft 110 kts 326°
2026-05-06 04:02 37.73035 -122.22468 5966 ft 107 kts 345°
2026-05-06 04:02 37.73763 -122.22730 5967 ft 107 kts 347°
2026-05-06 04:02 37.74495 -122.22977 5966 ft 107 kts 348°
2026-05-06 04:02 37.75224 -122.23219 5965 ft 107 kts 348°
2026-05-06 04:03 37.75944 -122.23457 5963 ft 107 kts 348°
2026-05-06 04:03 37.76665 -122.23695 5963 ft 107 kts 348°
2026-05-06 04:03 37.77401 -122.23936 5963 ft 107 kts 348°
2026-05-06 04:03 37.78125 -122.24174 5948 ft 108 kts 348°
2026-05-06 04:04 37.78856 -122.24414 5946 ft 108 kts 348°
2026-05-06 04:04 37.79627 -122.24666 5805 ft 118 kts 348°
2026-05-06 04:04 37.80459 -122.24937 5608 ft 124 kts 347°
2026-05-06 04:04 37.81340 -122.25226 5402 ft 127 kts 347°
2026-05-06 04:05 37.82239 -122.25523 5194 ft 129 kts 347°
2026-05-06 04:05 37.83133 -122.25816 4989 ft 129 kts 346°
2026-05-06 04:05 37.84011 -122.26105 4785 ft 129 kts 346°
2026-05-06 04:05 37.84920 -122.26405 4577 ft 130 kts 346°
2026-05-06 04:06 37.85811 -122.26698 4373 ft 131 kts 346°
2026-05-06 04:06 37.86700 -122.26990 4171 ft 131 kts 345°
2026-05-06 04:06 37.87608 -122.27289 3965 ft 132 kts 345°
2026-05-06 04:06 37.88502 -122.27583 3765 ft 132 kts 345°
2026-05-06 04:07 37.89405 -122.27880 3561 ft 133 kts 344°
2026-05-06 04:07 37.90318 -122.28181 3357 ft 133 kts 344°
2026-05-06 04:07 37.91302 -122.28506 3140 ft 134 kts 343°
2026-05-06 04:07 37.92229 -122.28912 2973 ft 128 kts 326°
2026-05-06 04:08 37.92942 -122.29610 2956 ft 120 kts 320°
2026-05-06 04:08 37.93603 -122.30302 2953 ft 116 kts 319°
2026-05-06 04:08 37.94271 -122.30998 2952 ft 114 kts 319°
2026-05-06 04:08 37.94919 -122.31684 2952 ft 113 kts 319°
2026-05-06 04:09 37.95578 -122.32385 2952 ft 113 kts 318°
2026-05-06 04:09 37.96215 -122.33063 2954 ft 113 kts 318°
2026-05-06 04:09 37.96832 -122.33719 2954 ft 113 kts 319°
2026-05-06 04:09 37.97436 -122.34361 2952 ft 113 kts 319°
2026-05-06 04:10 37.98047 -122.35010 2952 ft 113 kts 319°
2026-05-06 04:10 37.98657 -122.35661 2952 ft 112 kts 318°
2026-05-06 04:10 37.99260 -122.36301 2952 ft 112 kts 318°
2026-05-06 04:10 37.99864 -122.36945 2950 ft 112 kts 318°
2026-05-06 04:11 38.00464 -122.37585 2950 ft 113 kts 318°
2026-05-06 04:11 38.01066 -122.38227 2950 ft 113 kts 319°
2026-05-06 04:11 38.01676 -122.38878 2950 ft 113 kts 319°
2026-05-06 04:11 38.02278 -122.39520 2951 ft 113 kts 318°
2026-05-06 04:12 38.02887 -122.40168 2949 ft 113 kts 318°
2026-05-06 04:12 38.03497 -122.40819 2950 ft 113 kts 318°
2026-05-06 04:12 38.04097 -122.41458 2950 ft 112 kts 318°
2026-05-06 04:12 38.04700 -122.42102 2951 ft 112 kts 319°
2026-05-06 04:13 38.05303 -122.42746 2952 ft 112 kts 319°
2026-05-06 04:13 38.05901 -122.43384 2954 ft 112 kts 319°
2026-05-06 04:13 38.06501 -122.44024 2956 ft 112 kts 319°
2026-05-06 04:13 38.07107 -122.44672 2956 ft 112 kts 319°
2026-05-06 04:14 38.07699 -122.45304 2956 ft 112 kts 319°
2026-05-06 04:14 38.08299 -122.45945 2956 ft 112 kts 318°
2026-05-06 04:14 38.08899 -122.46587 2954 ft 112 kts 318°
2026-05-06 04:14 38.09499 -122.47227 2955 ft 112 kts 318°
2026-05-06 04:15 38.10096 -122.47866 2954 ft 112 kts 319°
2026-05-06 04:15 38.10699 -122.48511 2954 ft 112 kts 319°
2026-05-06 04:15 38.11300 -122.49153 2953 ft 113 kts 319°
2026-05-06 04:15 38.11907 -122.49803 2954 ft 113 kts 319°
2026-05-06 04:16 38.12502 -122.50439 2954 ft 113 kts 318°
2026-05-06 04:16 38.13109 -122.51089 2953 ft 112 kts 319°
2026-05-06 04:16 38.13713 -122.51736 2953 ft 113 kts 319°
2026-05-06 04:16 38.14390 -122.52224 2948 ft 115 kts 349°
2026-05-06 04:17 38.15164 -122.51962 2951 ft 119 kts 32°
2026-05-06 04:17 38.15649 -122.51097 2955 ft 123 kts 62°
2026-05-06 04:17 38.15973 -122.50072 2954 ft 124 kts 67°
2026-05-06 04:17 38.16263 -122.49035 2950 ft 119 kts 68°
2026-05-06 04:18 38.16493 -122.48160 2921 ft 90 kts 67°
2026-05-06 04:18 38.16712 -122.47343 2526 ft 107 kts 68°
2026-05-06 04:18 38.16963 -122.46410 2077 ft 117 kts 68°
2026-05-06 04:18 38.17229 -122.45401 1629 ft 121 kts 69°
2026-05-06 04:19 38.17468 -122.44488 1633 ft 105 kts 68°
2026-05-06 04:19 38.17717 -122.43554 1652 ft 117 kts 69°
2026-05-06 04:19 38.17984 -122.42551 1652 ft 124 kts 70°
2026-05-06 04:19 38.18265 -122.41479 1648 ft 127 kts 69°
2026-05-06 04:20 38.18542 -122.40417 1647 ft 128 kts 69°
2026-05-06 04:20 38.18814 -122.39331 1644 ft 129 kts 72°
2026-05-06 04:20 38.19033 -122.38199 1485 ft 127 kts 75°
2026-05-06 04:20 38.19228 -122.37131 1330 ft 122 kts 75°
2026-05-06 04:21 38.19421 -122.36095 1290 ft 118 kts 75°
2026-05-06 04:21 38.19608 -122.35093 1286 ft 114 kts 75°
2026-05-06 04:21 38.19790 -122.34121 1287 ft 111 kts 76°
2026-05-06 04:21 38.19977 -122.33120 1294 ft 120 kts 76°
2026-05-06 04:22 38.20406 -122.32207 1296 ft 122 kts 41°
2026-05-06 04:22 38.21073 -122.31503 1297 ft 123 kts 30°
2026-05-06 04:22 38.21668 -122.30724 1290 ft 126 kts 64°
2026-05-06 04:23 38.22231 -122.28587 1297 ft 128 kts 64°
2026-05-06 04:23 38.22626 -122.27564 1296 ft 128 kts 62°
2026-05-06 04:23 38.22909 -122.26512 1281 ft 117 kts 92°
2026-05-06 04:23 38.22662 -122.25680 1298 ft 82 kts 139°
2026-05-06 04:24 38.22220 -122.25401 1300 ft 66 kts 183°
2026-05-06 04:24 38.21812 -122.25597 1293 ft 61 kts 230°
2026-05-06 04:24 38.21558 -122.26024 1151 ft 40 kts 242°
2026-05-06 04:24 38.21412 -122.26355 960 ft 42 kts 244°
2026-05-06 04:25 38.21263 -122.26670 732 ft 51 kts 242°
2026-05-06 04:25 38.21178 -122.27001 262 ft 71 kts 204°
2026-05-06 04:25 38.21024 -122.27484 56 ft 56 kts 256°
2026-05-06 04:25 38.20941 -122.27871 19 ft 33 kts 256°
2026-05-06 04:26 38.20908 -122.28097 14 ft 20 kts 266°
2026-05-06 04:26 38.20908 -122.28190 13 ft 0 kts 53°